STARLINK-32789, 62529

Orbit data source: Space-Track

STARLINK-32789, 62529 is a payload satellite owned by SpaceX/Seattle (US) in LEO that was launched on Wed, 08 Jan 2025 UTC via an FALCON 9 launch vehicle from the Air Force Eastern Test Range (AFETR). Payloads include a variety of satellites, spacecraft, and rockets equipped with specific instruments for various scientific and technological missions. These include communications satellites like Starlink; space stations such as the ISS; scientific satellites like the Hubble; Earth observation satellites from companies like Planet Labs, Umbra, and HawkEye 360; GPS; miniature CubeSats for education and research; and military/defense satellites.

Loading next visibility...
STARLINK-32789 details
Identifier
62529, 2025-004U
Orbit
LEO
Last TLE update7 hours ago
Origin
Flag of USSpaceX/Seattle (US)
ManufacturerSpaceX/Seattle
MissionOperational spacecraft
Bus & MotorSTARLINK V2M, Unknown motor
Mass730 kg wet, ~700 kg dry
Launch date (UTC)
2025-01-08 (1 month ago)
Launch vehicle
FALCON 9
Launch site
Air Force Eastern Test Range (AFETR)
Object type
Payload
Rocket body
Debris
Shape & HBRUnknown
Radar Cross SectionLarge (>1 m²)

Expand to show TLE details & history

TLE from 7 hours ago
0 STARLINK-32789
1 62529U 25004U   25047.16668981 -.00068399  00000-0 -16416-2 0  9995
2 62529  43.0000 245.9259 0001616 268.1447 258.1758 15.40758542  7278
Epoch: 2025-02-16T04:00Z
Definitive object data (Epoch: 2025-02-16T04:00:01.999Z)
Latitude9.29245°
Longitude-150.53491°
Altitude443.14 km
Speed7.649 km/s
True Right ascension03h 43m 30s
True Declination9° 14' 07"
Sunlit
Object was in daylight at TLE epoch
Visualization TLE readout
Latitude2.51358°
Longitude40.4975°
Altitude443.544 km
Speed7.648 km/s
Apparent Right ascension19h 30m 31s
Apparent Declination-41° 07' 19"
Sunlit
Object is in daylight
Visualization observer readout
Local Sidereal Time13:50:55
Azimuth126.113° SE
Elevation-21.753°
Doppler factor1
Orbital elements
Apogee altitude446.928 km
Perigee altitude444.723 km
Semi-major axis6,823.963 km
Eccentricity0.0001616
Inclination43°
RAAN245.9259°
Arg. of periapsis268.1447°
True anomaly258.15768°
Mean anomaly258.1758°
Eccentric anomaly258.16674°
Mean motion3.85024 °/min
BSTAR-0.0016416
Orbital period93.5 mins
Loading maneuver chart data...
Loading historical data...
Loading historical data...
Loading historical data...
Loading historical data...
Loading historical data...
Loading historical data...
Loading historical data...

STARLINK-32789 Visibility forecast

Observer location: undefined°, undefined

Span
Click to sort rows by Start time (UTC) header in descending order
Start Az.
Max El. time (UTC)
Max El. Az.
Max El.
End time (UTC)
End Az.
4 mins2025-02-16 15:55:37.593Z182.797° SSW2025-02-16 15:57:37.593Z138.744° SSE19.076°2025-02-16 15:59:37.593Z100.504° ESE
5 mins2025-02-16 17:32:37.593Z249.801° W2025-02-16 17:34:37.593Z246.832° WSW41.944°2025-02-16 17:37:37.593Z72.213° E
5 mins2025-02-16 19:11:37.593Z294.389° NW2025-02-16 19:13:37.593Z15.877° NNE36.586°2025-02-16 19:16:37.593Z74.661° E
5 mins2025-02-16 20:49:37.593Z291.767° WNW2025-02-16 20:51:37.593Z10.296° NNE44.403°2025-02-16 20:54:37.593Z102.816° ESE
4 mins2025-02-16 22:27:37.593Z257.823° W2025-02-16 22:29:37.593Z208.399° SW23.784°2025-02-16 22:31:37.593Z163.08° S
|